This is the latest recevied weather packets stored in our database for station/object DD3FC-1. If no packets are shown the sender has not sent any weather packets the latest 10 day(s).
| Time | Temp. | Humidity | Pressure | Rain* | Wind** | Luminosity | Snow |
|---|---|---|---|---|---|---|---|
| 1777009878 | 7.22° C | 78% | 1024.1 hPa | 0 mm | - | - | - |
| 1777009278 | 6.67° C | 79% | 1024 hPa | 0 mm | - | - | - |
| 1777008678 | 6.11° C | 79% | 1024.1 hPa | 0 mm | - | - | - |
| 1777008078 | 6.11° C | 80% | 1024.2 hPa | 0 mm | - | - | - |
| 1777007478 | 5.56° C | 80% | 1024.2 hPa | 0 mm | - | - | - |
| 1777006878 | 5.56° C | 80% | 1024.2 hPa | 0 mm | - | - | - |
| 1777006278 | 5.56° C | 80% | 1024 hPa | 0 mm | - | - | - |
| 1777005678 | 5.56° C | 80% | 1024 hPa | 0 mm | - | - | - |
| 1777005078 | 5.56° C | 80% | 1024 hPa | 0 mm | - | - | - |
| 1777004478 | 6.11° C | 79% | 1023.9 hPa | 0 mm | - | - | - |
| 1777003878 | 6.11° C | 78% | 1024.1 hPa | 0 mm | - | - | - |
| 1777003278 | 6.11° C | 78% | 1024.1 hPa | 0 mm | - | - | - |
| 1777002678 | 6.11° C | 78% | 1024.1 hPa | 0 mm | - | - | - |
| 1777002078 | 6.11° C | 77% | 1024.1 hPa | 0 mm | - | - | - |
| 1777001478 | 6.67° C | 76% | 1024.2 hPa | 0 mm | - | - | - |
| 1777000878 | 6.67° C | 74% | 1024.3 hPa | 0 mm | - | - | - |
| 1777000278 | 6.67° C | 72% | 1024.3 hPa | 0 mm | - | - | - |
| 1776999678 | 6.67° C | 71% | 1024.5 hPa | 0 mm | - | - | - |
| 1776999078 | 7.22° C | 71% | 1024.4 hPa | 0 mm | - | - | - |
| 1776998478 | 7.22° C | 71% | 1024.4 hPa | 0 mm | - | - | - |
| 1776997878 | 7.22° C | 74% | 1024.4 hPa | 0 mm | - | - | - |
| 1776997278 | 7.22° C | 74% | 1024.4 hPa | 0 mm | - | - | - |
| 1776996678 | 7.22° C | 74% | 1024.4 hPa | 0 mm | - | - | - |
| 1776996078 | 7.22° C | 73% | 1024.5 hPa | 0 mm | - | - | - |
| 1776995478 | 7.78° C | 72% | 1024.6 hPa | 0 mm | - | - | - |
* Rain latest hour (hover to see other rain measurements)
** Current wind speed in m/s (hover to see current wind gust speed)